Wetterstats.de || Aktuelle Messwerte || Aktuelle Wetterkarten NEU! || Radar / Satellit NEU! || Wetterarchiv || Langzeitwerte NEU! || Klim. Kenntage || Met. Ereignisse || Agrarwerte || Echtzeitwerte

Monatsübersicht für April 2020 Diagramm
 
Wetter Information zur Wetteranzeige
Zeitraffer
Tageslänge (hh:mm)
Höchsttemperatur in °C
Uhrzeit
Tiefsttemperatur in °C
Uhrzeit
Luftfeuchte (max., in %)
Uhrzeit
Luftfeuchte (min., in %)
Uhrzeit
Luftdruck (max., in hPa)
Uhrzeit
Luftdruck (min., in hPa)
Uhrzeit
Luftdruck (Ø, in hPa)
Regenrate (max, mm/h)
Uhrzeit
Niederschlag in mm
Verdunstung in mm
Solar in W/m² (Ø)
Solar in W/m² (max.)
UV-Index (max.)
Sonnenscheindauer (hh:mm)
Windrichtung (Ø)
Windstärke (Ø in km/h)
Windstärke (Ø in bft)
Windböe (max., in km/h)
Uhrzeit
Windböe (max., in bft)
Uhrzeit
Taupunkt (max., in °C)
Uhrzeit
Taupunkt (min., in °C)
Uhrzeit
Windchill (min., in °C)
Uhrzeit
Gewitterindex (max.)
Uhrzeit
Waldbrandindex (max.)
Uhrzeit
Graslandfeuerindex (max.)
Uhrzeit
Staubsturm-Index (max.)
Uhrzeit
01
Zeitraffer
13:05
8.3
15:50 Uhr
-4.2
04:00 Uhr

87
02:40 Uhr
45
11:40 Uhr
1026.5
00:00 Uhr

1014.6
23:45 Uhr
1020.1
0,000
00:00 Uhr
0,000
1.956
238
568
13:20 Uhr
2.8
13:15 Uhr

05:27:00
7,1
2
30,6
11:55 Uhr

5
0.5
23:45 Uhr
-6.3
06:35 Uhr
-6.7
08:10 Uhr
0
00:00 Uhr
3.7
13:00 Uhr
5.9
08:30 Uhr
0.0
00:00 Uhr
02
Zeitraffer
13:09
9.8
17:35 Uhr
4.7
06:00 Uhr

78
04:30 Uhr
46
16:35 Uhr
1014.7
00:00 Uhr

1004.9
23:30 Uhr
1010.3
0,000
00:00 Uhr
0,000
2.057
190
470
17:15 Uhr
2.2
12:15 Uhr

01:49:00
9,7
2
37,0
17:15 Uhr

5
2.2
09:25 Uhr
-1.7
17:00 Uhr
0.3
15:00 Uhr
0
00:00 Uhr
4.2
16:05 Uhr
5.9
00:00 Uhr
0.0
00:00 Uhr
03
Zeitraffer
13:14
10.4
14:45 Uhr
0.0
23:55 Uhr

82
23:55 Uhr
40
14:30 Uhr
1018.6
23:55 Uhr

1004.4
02:10 Uhr
1011.0
0,000
00:00 Uhr
0,000
2.997
278
918
13:55 Uhr
4.0
12:55 Uhr

05:26:00
11,8
2
45,1
16:10 Uhr

6
2.9
03:10 Uhr
-3.1
14:30 Uhr
-2.6
08:05 Uhr
0
00:00 Uhr
4.6
18:05 Uhr
5.9
00:00 Uhr
0.0
00:00 Uhr
04
Zeitraffer
13:17
13.7
16:00 Uhr
-0.7
07:05 Uhr

90
07:15 Uhr
32
16:05 Uhr
1029.8
23:50 Uhr

1018.6
00:00 Uhr
1024.9
0,000
00:00 Uhr
0,000
2.946
411
800
11:55 Uhr
4.0
13:25 Uhr

10:38:00
3,1
1
24,1
12:55 Uhr

4
0.4
09:40 Uhr
-3.6
15:30 Uhr
-0.7
07:05 Uhr
0
00:00 Uhr
5.0
17:00 Uhr
5.9
00:00 Uhr
0.0
00:00 Uhr
05
Zeitraffer
13:21
16.3
16:05 Uhr
-2.3
04:40 Uhr

88
06:25 Uhr
30
16:35 Uhr
1032.4
09:00 Uhr

1026.9
23:10 Uhr
1029.9
0,000
00:00 Uhr
0,000
4.115
428
758
13:10 Uhr
4.1
13:15 Uhr

11:18:00
6,8
1
35,4
15:45 Uhr

5
0.3
13:20 Uhr
-4.8
04:40 Uhr
-2.3
04:40 Uhr
0
00:00 Uhr
5.3
16:05 Uhr
5.9
00:00 Uhr
0.0
00:00 Uhr
06
Zeitraffer
13:26
22.6
16:15 Uhr
2.1
06:20 Uhr

72
06:25 Uhr
20
17:15 Uhr
1026.9
00:00 Uhr

1022.7
17:05 Uhr
1024.4
0,000
00:00 Uhr
0,000
5.207
435
770
12:55 Uhr
4.5
13:10 Uhr

11:14:00
8,1
2
46,7
10:55 Uhr

6
1.0
11:45 Uhr
-2.8
06:20 Uhr
2.1
06:20 Uhr
0
00:00 Uhr
5.9
10:00 Uhr
5.9
00:00 Uhr
0.0
00:00 Uhr
07
Zeitraffer
13:30
19.8
14:50 Uhr
2.1
06:25 Uhr

84
05:35 Uhr
33
18:45 Uhr
1033.1
23:00 Uhr

1024.0
00:05 Uhr
1029.3
0,000
00:00 Uhr
0,000
4.089
415
739
13:30 Uhr
4.2
13:05 Uhr

11:14:00
5,4
1
30,6
10:55 Uhr

5
9.1
11:40 Uhr
-0.7
06:05 Uhr
2.1
06:25 Uhr
0
00:00 Uhr
5.9
00:00 Uhr
5.9
00:00 Uhr
0.0
00:00 Uhr
08
Zeitraffer
13:33
22.8
16:10 Uhr
0.4
06:50 Uhr

88
06:55 Uhr
32
16:10 Uhr
1033.0
00:00 Uhr

1021.9
23:25 Uhr
1027.9
0,000
00:00 Uhr
0,000
3.912
417
745
13:10 Uhr
3.9
13:05 Uhr

11:09:00
3,2
1
27,4
16:20 Uhr

4
7.4
14:40 Uhr
-1.5
06:50 Uhr
0.4
06:50 Uhr
0
00:00 Uhr
5.9
00:00 Uhr
5.9
00:00 Uhr
0.0
00:00 Uhr
09
Zeitraffer
13:37
18.0
15:45 Uhr
3.3
06:40 Uhr

89
06:45 Uhr
44
13:45 Uhr
1026.4
23:50 Uhr

1020.6
03:55 Uhr
1022.9
0,000
00:00 Uhr
0,000
3.988
402
868
14:20 Uhr
4.3
13:45 Uhr

09:02:00
7,5
2
46,7
17:20 Uhr

6
6.1
15:10 Uhr
1.3
05:10 Uhr
3.3
06:40 Uhr
0
00:00 Uhr
5.9
00:00 Uhr
5.9
00:00 Uhr
0.0
00:00 Uhr
10
Zeitraffer
13:42
16.7
17:45 Uhr
-1.3
05:55 Uhr

92
06:30 Uhr
32
15:40 Uhr
1027.7
07:15 Uhr

1023.8
17:45 Uhr
1026.0
0,000
00:00 Uhr
0,000
3.683
443
799
14:10 Uhr
4.3
14:10 Uhr

11:26:00
4,2
1
24,1
15:45 Uhr

4
2.8
09:15 Uhr
-2.7
05:55 Uhr
-1.3
05:55 Uhr
0
00:00 Uhr
5.9
00:00 Uhr
5.9
00:00 Uhr
0.0
00:00 Uhr
11
Zeitraffer
13:46
17.3
15:45 Uhr
-1.7
06:30 Uhr

90
06:55 Uhr
31
15:50 Uhr
1028.4
11:10 Uhr

1023.1
23:45 Uhr
1026.3
0,000
00:00 Uhr
0,000
3.302
424
786
12:25 Uhr
4.4
12:30 Uhr

11:22:00
2,3
1
17,7
14:30 Uhr

3
2.9
10:25 Uhr
-3.3
06:10 Uhr
-1.7
06:30 Uhr
0
00:00 Uhr
5.9
00:00 Uhr
5.9
00:00 Uhr
0.0
00:00 Uhr
12
Zeitraffer
13:49
23.4
15:35 Uhr
-1.2
06:15 Uhr

86
07:00 Uhr
24
14:20 Uhr
1023.2
00:15 Uhr

1009.8
23:10 Uhr
1015.7
0,000
00:00 Uhr
0,000
4.369
435
786
13:05 Uhr
4.7
13:05 Uhr

11:25:00
3,9
1
30,6
17:55 Uhr

5
5.0
20:55 Uhr
-3.7
06:15 Uhr
-1.2
06:15 Uhr
0
00:00 Uhr
5.9
00:00 Uhr
5.9
00:00 Uhr
0.0
00:00 Uhr
13
Zeitraffer
13:54
10.6
04:50 Uhr
2.4
22:05 Uhr

87
03:35 Uhr
30
15:00 Uhr
1016.8
22:45 Uhr

1009.0
02:20 Uhr
1013.2
2,400
03:20 Uhr
0,400
3.073
259
989
12:10 Uhr
4.3
12:35 Uhr

04:13:00
10,8
2
53,1
15:20 Uhr

7
6.3
04:20 Uhr
-7.4
15:00 Uhr
-7.2
22:30 Uhr
0
00:00 Uhr
5.9
00:00 Uhr
5.9
00:00 Uhr
0.0
00:00 Uhr
14
Zeitraffer
13:58
11.0
17:05 Uhr
-0.8
06:15 Uhr

92
06:00 Uhr
28
17:45 Uhr
1022.3
21:15 Uhr

1016.6
00:00 Uhr
1020.3
0,000
00:00 Uhr
0,000
2.870
313
885
13:55 Uhr
4.4
13:50 Uhr

07:27:00
9,2
2
43,5
16:45 Uhr

6
0.4
08:35 Uhr
-7.1
17:50 Uhr
-5.2
01:25 Uhr
0
00:00 Uhr
5.9
00:00 Uhr
5.9
00:00 Uhr
0.0
00:00 Uhr
15
Zeitraffer
14:02
15.6
18:40 Uhr
4.6
00:45 Uhr

74
07:05 Uhr
39
18:40 Uhr
1022.3
00:45 Uhr

1018.6
22:55 Uhr
1020.6
0,000
00:00 Uhr
0,000
3.226
319
877
13:35 Uhr
4.9
12:50 Uhr

07:16:00
9,8
2
43,5
14:20 Uhr

6
3.5
14:30 Uhr
-2.0
00:00 Uhr
-3.5
07:15 Uhr
0
00:00 Uhr
5.9
00:00 Uhr
5.9
00:00 Uhr
0.0
00:00 Uhr


 
Wetter Information zur Wetteranzeige
Zeitraffer
Tageslänge (hh:mm)
Höchsttemperatur in °C
Uhrzeit
Tiefsttemperatur in °C
Uhrzeit
Luftfeuchte (max., in %)
Uhrzeit
Luftfeuchte (min., in %)
Uhrzeit
Luftdruck (max., in hPa)
Uhrzeit
Luftdruck (min., in hPa)
Uhrzeit
Luftdruck (Ø, in hPa)
Regenrate (max, mm/h)
Uhrzeit
Niederschlag in mm
Verdunstung in mm
Solar in W/m² (Ø)
Solar in W/m² (max.)
UV-Index (max.)
Sonnenscheindauer (hh:mm)
Windrichtung (Ø)
Windstärke (Ø in km/h)
Windstärke (Ø in bft)
Windböe (max., in km/h)
Uhrzeit
Windböe (max., in bft)
Uhrzeit
Taupunkt (max., in °C)
Uhrzeit
Taupunkt (min., in °C)
Uhrzeit
Windchill (min., in °C)
Uhrzeit
Gewitterindex (max.)
Uhrzeit
Waldbrandindex (max.)
Uhrzeit
Graslandfeuerindex (max.)
Uhrzeit
Staubsturm-Index (max.)
Uhrzeit
16
Zeitraffer
14:05
18.1
15:45 Uhr
5.1
04:25 Uhr

74
04:30 Uhr
46
14:40 Uhr
1018.7
00:00 Uhr

1014.1
18:55 Uhr
1016.3
0,000
00:00 Uhr
0,000
3.988
419
798
13:10 Uhr
4.6
13:05 Uhr

10:20:00
6,8
1
30,6
11:15 Uhr

5
7.0
19:20 Uhr
0.3
06:20 Uhr
1.8
07:45 Uhr
0
00:00 Uhr
5.9
00:00 Uhr
5.9
00:00 Uhr
0.0
00:00 Uhr
17
Zeitraffer
14:09
16.9
16:45 Uhr
1.9
06:40 Uhr

90
07:10 Uhr
31
16:45 Uhr
1019.1
23:55 Uhr

1015.9
00:05 Uhr
1017.8
0,000
00:00 Uhr
0,000
4.115
456
809
13:00 Uhr
4.5
12:45 Uhr

11:16:00
4,5
1
22,5
14:05 Uhr

4
4.9
00:05 Uhr
-1.8
23:45 Uhr
1.9
06:40 Uhr
0
00:00 Uhr
5.9
00:00 Uhr
5.9
00:00 Uhr
0.0
00:00 Uhr
18
Zeitraffer
14:14
15.9
15:40 Uhr
0.3
05:05 Uhr

78
05:15 Uhr
20
19:35 Uhr
1020.2
07:30 Uhr

1017.2
18:05 Uhr
1019.0
0,000
00:00 Uhr
0,000
4.648
465
820
13:10 Uhr
4.8
12:50 Uhr

12:05:00
6,7
1
25,7
12:25 Uhr

4
-1.5
01:00 Uhr
-8.5
19:35 Uhr
0.3
05:05 Uhr
0
00:00 Uhr
5.9
00:00 Uhr
5.9
00:00 Uhr
0.0
00:00 Uhr
19
Zeitraffer
14:18
13.7
16:15 Uhr
4.5
06:25 Uhr

60
06:05 Uhr
26
16:30 Uhr
1026.2
23:55 Uhr

1019.2
00:00 Uhr
1022.9
0,000
00:00 Uhr
0,000
4.724
464
830
13:09 Uhr
4.4
12:35 Uhr

11:54:00
9,9
2
41,8
10:50 Uhr

6
-0.5
20:15 Uhr
-6.2
13:15 Uhr
-1.6
08:40 Uhr
0
00:00 Uhr
5.9
00:00 Uhr
5.9
00:00 Uhr
0.0
00:00 Uhr
20
Zeitraffer
14:21
15.7
17:25 Uhr
-0.2
04:35 Uhr

79
04:30 Uhr
34
14:50 Uhr
1028.3
10:40 Uhr

1025.1
17:50 Uhr
1026.8
0,000
00:00 Uhr
0,000
4.674
461
820
13:35 Uhr
4.6
12:50 Uhr

11:58:00
8,1
2
38,6
10:35 Uhr

5
0.4
18:35 Uhr
-3.4
04:00 Uhr
-0.2
04:35 Uhr
0
00:00 Uhr
5.9
00:00 Uhr
5.9
00:00 Uhr
0.0
00:00 Uhr
21
Zeitraffer
14:25
17.7
16:25 Uhr
3.8
03:45 Uhr

77
04:05 Uhr
30
16:25 Uhr
1028.0
09:00 Uhr

1025.6
18:50 Uhr
1026.9
0,000
00:00 Uhr
0,000
4.928
457
810
13:00 Uhr
4.6
12:45 Uhr

11:56:00
8,8
2
37,0
13:45 Uhr

5
2.5
22:50 Uhr
-0.9
00:35 Uhr
2.8
08:40 Uhr
0
00:00 Uhr
5.9
00:00 Uhr
5.9
00:00 Uhr
0.0
00:00 Uhr
22
Zeitraffer
14:29
18.7
17:25 Uhr
4.8
06:05 Uhr

78
06:05 Uhr
35
16:30 Uhr
1028.3
08:20 Uhr

1024.3
18:55 Uhr
1026.6
0,000
00:00 Uhr
0,000
4.623
460
824
13:10 Uhr
4.9
13:00 Uhr

12:00:00
7,3
2
30,6
15:15 Uhr

5
4.8
23:30 Uhr
1.2
04:55 Uhr
1.0
07:25 Uhr
0
00:00 Uhr
5.9
00:00 Uhr
5.9
00:00 Uhr
0.0
00:00 Uhr
23
Zeitraffer
14:33
22.4
16:40 Uhr
1.9
06:05 Uhr

91
06:10 Uhr
26
14:50 Uhr
1026.2
07:05 Uhr

1016.3
23:50 Uhr
1022.7
0,000
00:00 Uhr
0,000
4.521
462
825
13:10 Uhr
5.3
12:40 Uhr

12:04:00
2,7
1
22,5
11:15 Uhr

4
6.0
08:55 Uhr
0.5
06:05 Uhr
1.9
06:05 Uhr
0
00:00 Uhr
5.9
00:00 Uhr
5.9
00:00 Uhr
0.0
00:00 Uhr
24
Zeitraffer
14:37
21.9
14:00 Uhr
3.4
04:45 Uhr

84
03:15 Uhr
24
17:40 Uhr
1016.7
00:10 Uhr

1004.8
19:25 Uhr
1008.7
0,000
00:00 Uhr
0,000
4.902
406
905
14:05 Uhr
4.7
12:55 Uhr

09:31:00
6,8
1
45,1
17:15 Uhr

6
6.0
10:20 Uhr
-0.9
17:40 Uhr
3.4
04:45 Uhr
0
00:00 Uhr
5.9
00:00 Uhr
5.9
00:00 Uhr
0.0
00:00 Uhr
25
Zeitraffer
14:41
14.7
16:25 Uhr
7.4
23:55 Uhr

82
07:45 Uhr
36
16:25 Uhr
1011.7
13:05 Uhr

1005.3
00:00 Uhr
1009.2
0,000
00:00 Uhr
0,000
3.226
311
1069
13:25 Uhr
5.1
13:10 Uhr

04:48:00
8,2
2
35,4
05:50 Uhr

5
5.2
07:45 Uhr
-0.2
16:15 Uhr
2.0
05:35 Uhr
0
00:00 Uhr
5.9
00:00 Uhr
5.9
00:00 Uhr
0.0
00:00 Uhr
26
Zeitraffer
14:45
17.8
17:50 Uhr
-0.1
05:35 Uhr

92
06:25 Uhr
31
16:10 Uhr
1012.4
10:30 Uhr

1009.7
18:15 Uhr
1011.1
0,000
00:00 Uhr
0,000
3.556
360
1075
13:20 Uhr
5.4
13:15 Uhr

06:43:00
3,6
1
29,0
12:55 Uhr

4
3.9
08:40 Uhr
-1.6
05:30 Uhr
-0.1
05:35 Uhr
0
00:00 Uhr
5.9
00:00 Uhr
5.9
00:00 Uhr
0.0
00:00 Uhr
27
Zeitraffer
14:49
22.5
18:30 Uhr
0.9
06:00 Uhr

91
04:20 Uhr
28
14:40 Uhr
1010.8
00:40 Uhr

1005.3
23:45 Uhr
1008.3
0,000
00:00 Uhr
0,000
4.572
460
884
12:55 Uhr
4.8
12:50 Uhr

11:41:00
3,2
1
32,2
14:00 Uhr

5
5.9
10:35 Uhr
-0.7
06:05 Uhr
0.9
06:00 Uhr
0
00:00 Uhr
5.9
00:00 Uhr
5.9
00:00 Uhr
0.0
00:00 Uhr
28
Zeitraffer
14:52
22.9
15:55 Uhr
4.7
06:10 Uhr

88
06:20 Uhr
34
13:55 Uhr
1005.4
00:15 Uhr

1003.0
18:45 Uhr
1004.2
0,000
00:00 Uhr
0,000
4.216
373
886
13:15 Uhr
4.5
12:25 Uhr

07:59:00
6,3
1
30,6
11:40 Uhr

5
10.1
19:20 Uhr
2.3
06:05 Uhr
4.7
06:10 Uhr
0
00:00 Uhr
5.9
00:00 Uhr
5.9
00:00 Uhr
0.0
00:00 Uhr
29
Zeitraffer
14:56
17.3
15:45 Uhr
7.9
06:00 Uhr

93
22:45 Uhr
61
15:45 Uhr
1006.5
22:45 Uhr

1003.1
04:45 Uhr
1004.8
2,400
18:10 Uhr
0,400
1.778
200
840
12:35 Uhr
4.4
14:25 Uhr

02:37:00
4,5
1
20,9
00:05 Uhr

4
11.7
18:55 Uhr
4.0
00:00 Uhr
5.4
05:35 Uhr
3
21:10 Uhr
5.9
00:00 Uhr
5.9
00:00 Uhr
0.0
00:00 Uhr
30
Zeitraffer
15:00
17.8
19:00 Uhr
9.1
03:05 Uhr

97
07:15 Uhr
56
19:50 Uhr
1006.8
01:05 Uhr

1002.0
23:20 Uhr
1004.3
7,200
15:05 Uhr
3,000
2.464
242
849
12:30 Uhr
3.8
12:10 Uhr

06:30:00
5,6
1
27,4
12:15 Uhr

4
12.6
16:35 Uhr
8.3
03:05 Uhr
8.0
04:10 Uhr
3
16:05 Uhr
5.9
00:00 Uhr
5.9
00:00 Uhr
0.0
00:00 Uhr
Stationsstandorte || Wetterblog || Wissenswertes || Downloads || Seitenhistorie || Partner || Impressum / Datenschutz